Preview of NWS' New Version of Forecast
This preview is not operational and should not be used for support decisions.

Regional Weather Roundup (RWR)

Issued by State College, PA (CTP)

                            
000
ASUS41 KCTP 170510
RWRCTP

REGIONAL WEATHER ROUNDUP
NATIONAL WEATHER SERVICE STATE COLLEGE PA
1200 AM EST MON DEC 17 2018

Note: "fair" indicates few or no clouds below 12,000 feet with no 
significant weather and/or obstructions to visibility.

* = STATION THAT DOES NOT REPORT PRECIPITATION /E.G. RAIN...SNOW...ETC/
    THUNDER OR FOG.

PAZ002>004-007>009-013>016-020>023-029>032-170600-
WESTERN PENNSYLVANIA
  
CITY           SKY/WX    TMP DP  RH WIND       PRES   REMARKS
ERIE           CLOUDY    38  34  85 SW8       29.94F                  
MEADVILLE      CLOUDY    34  34 100 W9        29.93F                  
FRANKLIN*      CLOUDY   N/A N/A N/A W7G16     29.93F                  
NEW CASTLE     CLOUDY    36  33  89 W7        29.98F                  
BEAVER COUNTY  NOT AVBL                                               
BUTLER*        MOCLDY    39  34  82 W9G17     29.96F                  
PITTSBURGH INT CLOUDY    39  36  89 W12       29.97F                  
PITTSBURGH     CLOUDY    41  36  82 W13G21    29.95F                  
INDIANA*       CLOUDY    39  39 100 W9        29.97F FOG              
LATROBE        CLOUDY    41  41 100 SW8G15    29.97F                  
WASHINGTON CO* CLOUDY    41  37  86 W10       30.01F                  
$$

PAZ004>006-010>012-017>019-024>028-033>037-041-042-045-046-049>053-170600-
CENTRAL PENNSYLVANIA
  
CITY           SKY/WX    TMP DP  RH WIND       PRES   REMARKS
BRADFORD       CLOUDY    35  35 100 W3        29.85F                  
DUBOIS         CLOUDY    37  35  92 W8        29.89F                  
CLEARFIELD     CLOUDY    39  37  92 SW5       29.89F                  
JOHNSTOWN      CLOUDY    38  35  89 W9        29.89S                  
ALTOONA        CLOUDY    40  37  89 NW6       29.90S                  
STATE COLLEGE  CLOUDY    40  37  90 W5        29.89R                  
WILLIAMSPORT   CLOUDY    38  36  92 W3        29.88F                  
SELINSGROVE    CLOUDY    38  36  92 N5        29.89S                  
FT INDIANTOWN  CLOUDY    41  34  75 CALM      29.86F                  
CAPITAL CITY   CLOUDY    41  37  86 W3        29.88F                  
HARRISBURG     CLOUDY    41  37  86 N3        29.87F                  
YORK           CLOUDY    37  37 100 CALM      29.87F                  
$$

PAZ038>040-043-044-047-048-054-055-060>062-067>071-170600-
EASTERN PENNSYLVANIA
  
CITY           SKY/WX    TMP DP  RH WIND       PRES   REMARKS
SCRANTON       CLOUDY    36  34  92 NW3       29.83F                  
MOUNT POCONO   CLOUDY    32  32 100 NW13      29.76F                  
ALLENTOWN      CLOUDY    40  34  79 NW7       29.83F                  
QUAKERTOWN*    CLOUDY    37  37 100 NW5       29.83F                  
READING        MOCLDY    37  36  96 NW6       29.85F                  
LANCASTER      CLOUDY    41  37  86 W7        29.87F                  
COATESVILLE    MOCLDY    37  36  93 NW7       29.85F                  
POTTSTOWN      CLOUDY    37  36  96 NW3       29.85F                  
BLUE BELL      CLOUDY    36  36 100 CALM      29.85S                  
DOYLESTOWN     CLOUDY    38  35  89 NW6       29.82S                  
WILLOW GROVE   NOT AVBL                                               
NORTH PHILA    CLOUDY    41  35  79 NW13      29.84S                  
PHILADELPHIA   CLOUDY    39  36  89 NW13      29.84F                  
$$